Location: Bemmer
(51.5498°N, 5.6249°E)
Time: 13:52:45
(UTC+00:00)

ERS-2 - Pass Details

Date: 03 March 2021
Orbit: 492 x 496 km, 98.6° (Epoch: 11 April)

Event Time Altitude Azimuth Distance (km) Brightness Sun altitude
Rises 18:21:31 0° 18° (NNE) 2,596 5.6 -10.1°
Reaches altitude 10° 18:23:39 10° 23° (NNE) 1,708 4.6 -10.4°
Maximum altitude 18:27:15 54° 102° (ESE) 610 2.2 -11.0°
Drops below altitude 10° 18:30:50 10° 181° (S) 1,695 4.8 -11.5°
Sets 18:32:56 0° 186° (S) 2,573 5.8 -11.9°
